�������l�o���
Date,Time,MP-1(��Sv/h),MP-2(��Sv/h),MP-3(��Sv/h),MP-4(��Sv/h),MP-5(��Sv/h),MP-6(��Sv/h),MP-7(��Sv/h),MP-8(��Sv/h),����,����(m/s),���J
2017/12/18,00:00,0.895,1.495,0.932,1.765,1.192,0.489,0.877,0.843,��,2.3,��
2017/12/18,00:10,0.893,1.494,0.933,1.766,1.191,0.491,0.874,0.843,��,1.9,��
2017/12/18,00:20,0.894,1.494,0.933,1.763,1.193,0.492,0.875,0.843,���쐼,2.6,��
2017/12/18,00:30,0.896,1.492,0.930,1.764,1.193,0.491,0.873,0.844,�쐼,2.9,��
2017/12/18,00:40,0.896,1.492,0.932,1.762,1.195,0.491,0.874,0.842,��쐼,2.6,��
2017/12/18,00:50,0.894,1.494,0.932,1.765,1.193,0.492,0.876,0.842,��쐼,2.8,��
2017/12/18,01:00,0.895,1.493,0.932,1.765,1.193,0.493,0.877,0.841,��쐼,3.0,��
2017/12/18,01:10,0.896,1.493,0.930,1.764,1.194,0.493,0.877,0.843,��쐼,3.2,��
2017/12/18,01:20,0.895,1.493,0.934,1.766,1.193,0.493,0.875,0.844,��쐼,3.6,��
2017/12/18,01:30,0.895,1.493,0.935,1.765,1.196,0.492,0.876,0.842,��쐼,4.3,��
2017/12/18,01:40,0.895,1.494,0.931,1.767,1.193,0.491,0.876,0.842,��쐼,4.4,��
2017/12/18,01:50,0.895,1.490,0.933,1.764,1.192,0.492,0.875,0.843,��쐼,3.8,��
2017/12/18,02:00,0.895,1.492,0.931,1.766,1.193,0.491,0.874,0.842,�쐼,4.0,��
2017/12/18,02:10,0.896,1.491,0.933,1.768,1.191,0.493,0.876,0.843,�쐼,4.2,��
2017/12/18,02:20,0.897,1.493,0.931,1.765,1.192,0.492,0.873,0.843,�쐼,4.4,��
2017/12/18,02:30,0.896,1.492,0.932,1.765,1.190,0.490,0.875,0.842,���쐼,3.4,��
2017/12/18,02:40,0.895,1.492,0.931,1.764,1.191,0.491,0.875,0.844,��,3.5,��
2017/12/18,02:50,0.894,1.492,0.932,1.765,1.192,0.491,0.874,0.840,��,3.0,��
2017/12/18,03:00,0.894,1.490,0.929,1.764,1.193,0.493,0.877,0.841,��,2.6,��
2017/12/18,03:10,0.893,1.492,0.932,1.765,1.191,0.492,0.874,0.842,��,3.0,��
2017/12/18,03:20,0.894,1.491,0.932,1.762,1.192,0.491,0.876,0.841,���쐼,3.8,��
2017/12/18,03:30,0.893,1.490,0.929,1.765,1.193,0.493,0.876,0.842,�쐼,3.4,��
2017/12/18,03:40,0.894,1.493,0.930,1.765,1.192,0.491,0.875,0.844,�쐼,3.4,��
2017/12/18,03:50,0.892,1.491,0.931,1.764,1.189,0.492,0.875,0.843,���쐼,3.4,��
2017/12/18,04:00,0.896,1.489,0.932,1.763,1.190,0.491,0.875,0.842,���쐼,3.6,��
2017/12/18,04:10,0.897,1.492,0.929,1.763,1.191,0.491,0.874,0.842,���쐼,4.1,��
2017/12/18,04:20,0.894,1.491,0.932,1.760,1.191,0.491,0.875,0.842,�쐼,4.2,��
2017/12/18,04:30,0.892,1.490,0.931,1.763,1.192,0.491,0.875,0.842,���쐼,4.0,��
2017/12/18,04:40,0.894,1.491,0.931,1.763,1.189,0.491,0.875,0.842,���쐼,3.8,��
2017/12/18,04:50,0.894,1.490,0.931,1.765,1.189,0.490,0.874,0.843,���쐼,3.6,��
2017/12/18,05:00,0.895,1.488,0.932,1.763,1.191,0.491,0.875,0.842,���쐼,4.7,��
2017/12/18,05:10,0.893,1.489,0.931,1.761,1.190,0.490,0.876,0.842,�쐼,5.3,��
2017/12/18,05:20,0.895,1.491,0.931,1.764,1.191,0.491,0.875,0.843,�쐼,5.7,��
2017/12/18,05:30,0.894,1.491,0.931,1.763,1.189,0.489,0.876,0.843,���쐼,4.0,��
2017/12/18,05:40,0.894,1.491,0.930,1.764,1.189,0.491,0.874,0.844,�쐼,4.1,��
2017/12/18,05:50,0.893,1.490,0.932,1.766,1.190,0.491,0.874,0.841,���쐼,3.2,��
2017/12/18,06:00,0.895,1.491,0.932,1.765,1.191,0.492,0.875,0.843,���쐼,3.4,��
2017/12/18,06:10,0.893,1.490,0.935,1.763,1.192,0.491,0.877,0.841,�쐼,3.6,��
2017/12/18,06:20,0.896,1.487,0.932,1.763,1.188,0.491,0.875,0.842,�쐼,4.3,��
2017/12/18,06:30,0.894,1.489,0.932,1.760,1.191,0.489,0.874,0.842,���쐼,4.0,��
2017/12/18,06:40,0.894,1.490,0.930,1.763,1.191,0.490,0.874,0.842,���쐼,4.4,��
2017/12/18,06:50,0.894,1.489,0.932,1.764,1.190,0.490,0.875,0.841,���쐼,6.1,��
2017/12/18,07:00,0.894,1.489,0.929,1.763,1.188,0.490,0.875,0.843,���쐼,6.8,��
2017/12/18,07:10,0.893,1.490,0.929,1.765,1.191,0.491,0.875,0.842,���쐼,6.9,��
2017/12/18,07:20,0.894,1.493,0.930,1.763,1.188,0.490,0.877,0.841,���쐼,7.1,��
2017/12/18,07:30,0.895,1.491,0.932,1.766,1.189,0.490,0.876,0.842,���쐼,7.2,��
2017/12/18,07:40,0.896,1.492,0.931,1.765,1.188,0.491,0.876,0.842,���쐼,6.4,��
2017/12/18,07:50,0.895,1.493,0.931,1.764,1.188,0.490,0.876,0.842,���쐼,6.0,��
2017/12/18,08:00,0.894,1.491,0.934,1.763,1.190,0.491,0.874,0.843,��,4.9,��
2017/12/18,08:10,0.895,1.493,0.933,1.764,1.187,0.490,0.876,0.842,��,5.9,��
2017/12/18,08:20,0.896,1.493,0.933,1.766,1.190,0.490,0.877,0.842,��,5.8,��
2017/12/18,08:30,0.895,1.492,0.935,1.762,1.191,0.492,0.875,0.844,���쐼,4.9,��
2017/12/18,08:40,0.895,1.493,0.933,1.765,1.192,0.492,0.876,0.842,���쐼,4.8,��
2017/12/18,08:50,0.887,1.492,0.931,1.767,1.191,0.491,0.879,0.844,���쐼,4.2,��
2017/12/18,09:00,0.893,1.492,0.930,1.764,1.191,0.491,0.878,0.843,��,4.8,��
2017/12/18,09:10,0.894,1.493,0.929,1.766,1.190,0.491,0.879,0.843,���쐼,4.6,��
2017/12/18,09:20,0.894,1.493,0.931,1.766,1.193,0.492,0.877,0.846,���쐼,4.2,��
2017/12/18,09:30,0.893,1.491,0.935,1.769,1.191,0.492,0.878,0.844,��,4.5,��
2017/12/18,09:40,0.891,1.492,0.934,1.767,1.190,0.492,0.877,0.845,��,4.7,��
2017/12/18,09:50,0.895,1.489,0.934,1.768,1.195,0.493,0.879,0.847,��,3.4,��
2017/12/18,10:00,0.895,1.489,0.933,1.769,1.194,0.492,0.878,0.847,��,4.2,��
2017/12/18,10:10,0.895,1.491,0.933,1.768,1.192,0.493,0.876,0.845,���쐼,4.2,��
2017/12/18,10:20,0.890,1.487,0.934,1.767,1.193,0.493,0.877,0.845,��,2.6,��
2017/12/18,10:30,0.893,1.490,0.937,1.770,1.195,0.495,0.876,0.846,���쐼,4.2,��
2017/12/18,10:40,0.894,1.486,0.936,1.770,1.196,0.493,0.877,0.846,�쐼,4.7,��
2017/12/18,10:50,0.901,1.490,0.936,1.771,1.195,0.493,0.878,0.847,�쐼,4.3,��
2017/12/18,11:00,0.901,1.484,0.934,1.770,1.197,0.492,0.879,0.845,��,4.3,��
2017/12/18,11:10,0.899,1.478,0.937,1.770,1.197,0.494,0.878,0.847,���k��,5.5,��
2017/12/18,11:20,0.900,1.477,0.937,1.770,1.195,0.495,0.879,0.846,��,4.3,��
2017/12/18,11:30,0.900,1.484,0.935,1.769,1.196,0.495,0.879,0.846,��,6.4,��
2017/12/18,11:40,0.902,1.489,0.937,1.770,1.199,0.495,0.877,0.846,��,6.6,��
2017/12/18,11:50,0.900,1.487,0.936,1.773,1.195,0.493,0.879,0.845,���k��,4.5,��
2017/12/18,12:00,0.900,1.492,0.938,1.771,1.196,0.495,0.878,0.846,��,6.7,��
2017/12/18,12:10,0.902,1.490,0.937,1.774,1.198,0.494,0.877,0.846,��,5.2,��
2017/12/18,12:20,0.902,1.493,0.938,1.776,1.198,0.495,0.879,0.845,���k��,3.3,��
2017/12/18,12:30,0.903,1.493,0.940,1.771,1.199,0.494,0.878,0.847,��,3.1,��
2017/12/18,12:40,0.904,1.493,0.940,1.772,1.199,0.494,0.879,0.848,���쐼,4.3,��
2017/12/18,12:50,0.901,1.492,0.940,1.775,1.198,0.495,0.880,0.847,�쐼,3.2,��
2017/12/18,13:00,0.903,1.493,0.940,1.774,1.200,0.496,0.880,0.849,���쐼,2.9,��
2017/12/18,13:10,0.904,1.492,0.940,1.772,1.201,0.495,0.881,0.848,�쐼,3.9,��
2017/12/18,13:20,0.904,1.489,0.943,1.775,1.200,0.495,0.882,0.848,��쓌,6.2,��
2017/12/18,13:30,0.906,1.495,0.938,1.771,1.201,0.495,0.882,0.847,��쓌,7.0,��
2017/12/18,13:40,0.903,1.491,0.942,1.760,1.199,0.495,0.881,0.846,�쓌,6.3,��
2017/12/18,13:50,0.905,1.488,0.940,1.767,1.203,0.496,0.882,0.845,��쓌,5.0,��
2017/12/18,14:00,0.901,1.491,0.940,1.764,1.202,0.495,0.878,0.847,�쓌,5.0,��
2017/12/18,14:10,0.903,1.489,0.939,1.773,1.199,0.495,0.880,0.845,��쓌,5.7,��
2017/12/18,14:20,0.904,1.488,0.939,1.771,1.200,0.494,0.880,0.846,��쓌,5.9,��
2017/12/18,14:30,0.903,1.493,0.936,1.774,1.199,0.494,0.881,0.847,��쓌,6.9,��
2017/12/18,14:40,0.904,1.491,0.935,1.775,1.199,0.495,0.882,0.847,��쓌,7.1,��
2017/12/18,14:50,0.904,1.496,0.936,1.773,1.202,0.496,0.882,0.846,��쓌,5.7,��
2017/12/18,15:00,0.904,1.496,0.938,1.770,1.202,0.497,0.882,0.846,��,4.1,��
2017/12/18,15:10,0.905,1.498,0.940,1.774,1.200,0.496,0.880,0.848,��쐼,4.6,��
2017/12/18,15:20,0.905,1.495,0.941,1.771,1.202,0.495,0.883,0.848,��,4.7,��
2017/12/18,15:30,0.904,1.493,0.941,1.775,1.200,0.496,0.880,0.847,��,5.6,��
2017/12/18,15:40,0.906,1.498,0.940,1.771,1.200,0.497,0.882,0.845,��쐼,5.6,��
2017/12/18,15:50,0.905,1.499,0.940,1.771,1.201,0.498,0.882,0.847,��,6.8,��
2017/12/18,16:00,0.903,1.498,0.939,1.773,1.201,0.496,0.882,0.846,��,7.4,��
2017/12/18,16:10,0.904,1.496,0.941,1.770,1.198,0.497,0.883,0.846,��쐼,7.6,��
2017/12/18,16:20,0.905,1.497,0.940,1.772,1.199,0.496,0.881,0.847,��,7.4,��
2017/12/18,16:30,0.904,1.496,0.941,1.774,1.199,0.496,0.883,0.847,��,8.2,��
2017/12/18,16:40,0.903,1.496,0.941,1.773,1.201,0.496,0.882,0.848,��,7.6,��
2017/12/18,16:50,0.900,1.498,0.939,1.773,1.202,0.498,0.879,0.846,��쐼,7.6,��
2017/12/18,17:00,0.902,1.497,0.941,1.775,1.203,0.496,0.882,0.845,��,8.6,��
2017/12/18,17:10,0.899,1.497,0.940,1.771,1.200,0.496,0.881,0.847,��쐼,7.6,��
2017/12/18,17:20,0.900,1.496,0.941,1.774,1.200,0.496,0.882,0.847,��쐼,6.6,��
2017/12/18,17:30,0.898,1.497,0.940,1.772,1.202,0.497,0.881,0.847,��쐼,7.5,��
2017/12/18,17:40,0.900,1.498,0.941,1.770,1.199,0.496,0.881,0.845,��쐼,7.2,��
2017/12/18,17:50,0.901,1.499,0.940,1.773,1.201,0.497,0.881,0.846,��쐼,7.3,��
2017/12/18,18:00,0.902,1.497,0.941,1.769,1.199,0.497,0.880,0.845,��쐼,8.6,��
2017/12/18,18:10,0.901,1.496,0.942,1.772,1.196,0.496,0.879,0.846,��쐼,9.7,��
2017/12/18,18:20,0.900,1.499,0.939,1.768,1.200,0.496,0.878,0.845,��쐼,10.7,��
2017/12/18,18:30,0.901,1.497,0.940,1.772,1.200,0.496,0.879,0.846,��쐼,10.0,��
2017/12/18,18:40,0.901,1.496,0.940,1.774,1.199,0.495,0.880,0.847,��쐼,10.5,��
2017/12/18,18:50,0.902,1.499,0.940,1.771,1.199,0.495,0.879,0.846,��쐼,8.8,��
2017/12/18,19:00,0.902,1.498,0.939,1.772,1.200,0.495,0.881,0.846,��쐼,8.0,��
2017/12/18,19:10,0.899,1.499,0.939,1.772,1.196,0.495,0.879,0.847,�쐼,7.5,��
2017/12/18,19:20,0.902,1.494,0.941,1.771,1.198,0.495,0.880,0.846,��쐼,8.3,��
2017/12/18,19:30,0.901,1.495,0.939,1.769,1.199,0.495,0.880,0.845,��쐼,7.8,��
2017/12/18,19:40,0.900,1.496,0.941,1.774,1.202,0.495,0.880,0.847,��쐼,8.6,��
2017/12/18,19:50,0.901,1.496,0.941,1.772,1.199,0.495,0.879,0.846,��쐼,8.6,��
2017/12/18,20:00,0.899,1.494,0.939,1.770,1.198,0.496,0.880,0.846,�쐼,7.5,��
2017/12/18,20:10,0.900,1.495,0.939,1.775,1.200,0.493,0.880,0.848,�쐼,6.5,��
2017/12/18,20:20,0.901,1.496,0.940,1.772,1.199,0.496,0.880,0.847,���쐼,7.7,��
2017/12/18,20:30,0.899,1.495,0.939,1.772,1.198,0.495,0.881,0.846,���쐼,7.6,��
2017/12/18,20:40,0.901,1.496,0.941,1.772,1.198,0.495,0.879,0.847,�쐼,8.0,��
2017/12/18,20:50,0.900,1.498,0.939,1.773,1.198,0.496,0.881,0.846,�쐼,8.7,��
2017/12/18,21:00,0.900,1.496,0.937,1.772,1.198,0.495,0.880,0.846,�쐼,8.8,��
2017/12/18,21:10,0.901,1.496,0.938,1.773,1.199,0.495,0.880,0.847,�쐼,8.6,��
2017/12/18,21:20,0.901,1.496,0.940,1.771,1.199,0.494,0.881,0.847,�쐼,8.8,��
2017/12/18,21:30,0.901,1.497,0.939,1.771,1.200,0.494,0.881,0.845,�쐼,8.5,��
2017/12/18,21:40,0.900,1.496,0.941,1.771,1.199,0.495,0.881,0.847,�쐼,8.6,��
2017/12/18,21:50,0.901,1.495,0.940,1.772,1.199,0.495,0.881,0.846,�쐼,8.8,��
2017/12/18,22:00,0.901,1.495,0.941,1.770,1.199,0.496,0.880,0.846,�쐼,8.5,��
2017/12/18,22:10,0.900,1.496,0.939,1.774,1.198,0.495,0.881,0.847,�쐼,8.4,��
2017/12/18,22:20,0.902,1.496,0.938,1.775,1.200,0.495,0.881,0.847,�쐼,8.2,��
2017/12/18,22:30,0.900,1.494,0.941,1.772,1.199,0.496,0.882,0.846,���쐼,8.6,��
2017/12/18,22:40,0.902,1.496,0.938,1.771,1.200,0.496,0.882,0.846,���쐼,7.0,��
2017/12/18,22:50,0.900,1.498,0.939,1.767,1.199,0.495,0.882,0.847,�쐼,6.1,��
2017/12/18,23:00,0.900,1.496,0.940,1.771,1.199,0.495,0.882,0.845,�쐼,6.6,��
2017/12/18,23:10,0.901,1.495,0.939,1.772,1.198,0.496,0.883,0.848,�쐼,6.8,��
2017/12/18,23:20,0.899,1.494,0.939,1.771,1.200,0.495,0.880,0.846,�쐼,7.4,��
2017/12/18,23:30,0.902,1.491,0.939,1.770,1.199,0.496,0.881,0.845,�쐼,7.2,��
2017/12/18,23:40,0.900,1.496,0.937,1.772,1.199,0.495,0.881,0.846,���쐼,7.6,��
2017/12/18,23:50,0.901,1.495,0.939,1.772,1.199,0.495,0.880,0.847,���쐼,7.4,��
